Location: B�ch
(47.2008°N, 8.7272°E)
Time: 18:20:56
(UTC+00:00)

Daily predictions for brighter satellites

Satellite Brightness Start Highest point End
(mag) Time Altitude Azimuth Time Altitude Azimuth Time Altitude Azimuth
Cosmos 1975 Rocket 3.9 19:59:16 10° SSE 20:03:10 33° E 20:07:07 10° NNE
Cosmos 1470 3.0 20:01:00 10° NNW 20:04:58 74° W 20:08:54 10° S
ATLAS CENTAUR R/B 3.3 20:03:30 10° NNW 20:06:58 23° NE 20:10:35 10° E
Meteor 1-21 4.3 20:01:40 10° S 20:07:20 84° E 20:12:59 10° NNE
SPOT 5 4.0 20:03:03 10° SE 20:07:31 32° ENE 20:11:50 10° N
Cosmos 1674 3.7 20:04:25 10° SSE 20:07:38 28° E 20:10:52 10° NNE
Cosmos 1980 Rocket 4.0 20:05:22 10° WSW 20:10:34 37° NW 20:15:47 10° NNE
Cosmos 1674 Rocket 4.4 20:06:39 10° SSW 20:10:57 53° WNW 20:15:16 10° N
Terra 3.2 20:11:04 10° ESE 20:14:57 26° ENE 20:18:52 10° N
Cosmos 2278 Rocket 4.4 20:12:10 10° N 20:15:11 14° NE 20:18:12 10° ENE
Cosmos 1726 2.9 20:14:41 10° NNW 20:18:14 50° W 20:21:45 10° S
Lacrosse 5 2.5 20:15:04 10° WNW 20:19:55 47° SW 20:24:46 10° SSE
Cosmos 1315 Rocket 3.5 20:16:45 10° NNW 20:20:49 57° W 20:24:51 10° S
Cosmos 1844 Rocket 3.0 20:19:57 10° NNW 20:25:35 58° ENE 20:30:53 11° SE
Cosmos 1452 Rocket 3.5 20:20:46 10° SSW 20:26:02 77° ESE 20:31:20 10° NNE
SL-8 R/B 3.7 20:22:52 10° WNW 20:27:41 87° SSW 20:32:30 10° ESE
Cosmos 2100 Rocket 4.2 20:23:46 10° N 20:30:08 65° ENE 20:36:23 10° SSE
ARIANE 5 R/B 2.8 20:29:11 11° SSE 20:33:25 65° ENE 20:37:54 10° N
NOSS 3-2 (C) 3.9 20:28:17 10° SW 20:33:56 66° NW 20:40:32 10° NE
Cosmos 1340 4.1 20:32:11 13° SE 20:34:31 21° E 20:37:26 10° NE
Cosmos 1850 Rocket 4.1 20:29:52 10° NNW 20:35:13 87° WSW 20:40:12 11° SSE
Cosmos 1908 3.3 20:33:48 10° N 20:37:41 62° E 20:40:58 13° SSE
FALCON 9 DEB 3.2 20:34:24 10° SW 20:37:44 52° SE 20:41:05 10° ENE
ATLAS 3B R/B 3.3 20:32:36 10° S 20:38:14 32° ESE 20:44:01 10° NE
Cosmos 2263 Rocket 3.9 20:33:50 10° NW 20:38:36 28° WSW 20:43:21 10° SSW
SPOT 1/Viking Rocket 3.8 20:34:22 10° S 20:39:28 71° WSW 20:44:37 10° NNW
Cosmos 1758 4.2 20:36:00 10° NNW 20:39:49 46° W 20:43:37 10° SSW
FALCON 9 DEB 4.4 20:40:01 16° SSE 20:40:42 17° SE 20:42:47 10° E
Geosat 4.0 20:37:26 13° SE 20:42:00 82° ENE 20:47:04 10° NNW
Cosmos 1544 Rocket 3.9 20:40:25 10° N 20:44:49 54° ENE 20:48:22 15° SSE
CZ-2C R/B 4.1 20:40:26 10° N 20:45:13 74° WNW 20:49:58 10° SSW
Spot 2 Rocket 3.5 20:40:29 11° SSE 20:45:26 87° WSW 20:50:33 10° NNW
Cosmos 1707 4.1 20:43:19 10° SW 20:46:58 39° WNW 20:50:40 10° N
Cosmos 2173 Rocket 4.1 20:41:44 10° N 20:48:10 81° E 20:54:11 12° SSE
Lacrosse 5 rocket 1.5 20:44:55 10° SSW 20:48:21 37° SE 20:51:42 10° ENE
ERS-1 Rocket 3.0 20:44:31 13° SSE 20:48:57 71° ENE 20:53:59 10° N
Cosmos 1455 Rocket 3.1 20:45:13 10° N 20:49:42 83° W 20:53:47 12° S
Cosmos 1331 Rocket 4.1 20:44:45 10° S 20:49:51 57° ESE 20:55:03 10° NNE
In-Cosmos 22 4.3 20:44:36 10° SSW 20:49:52 71° WNW 20:55:11 10° N
FALCON 9 DEB 4.3 20:50:01 19° SE 20:50:05 19° SE 20:52:22 10° E
Cosmos 2016 Rocket 4.2 20:45:14 10° N 20:51:15 58° ENE 20:56:17 15° SSE
BREEZE-M DEB (TANK) 2.0 20:57:51 10° SW 21:00:13 41° SE 21:04:31 10° ENE
Cosmos 2333 Rocket 2.7 20:55:52 11° S 21:01:05 42° ESE 21:06:26 10° NE
USA 215 3.9 20:55:45 10° ENE 21:01:24 30° SE 21:07:01 10° S
Cosmos 1725 Rocket 4.1 20:57:17 10° N 21:03:25 62° ENE 21:08:13 17° SSE
Cosmos 1953 2.9 21:02:54 10° NNW 21:06:53 54° W 21:10:22 13° S
Cosmos 1626 2.0 21:04:14 14° S 21:07:19 83° E 21:11:02 10° N
Cosmos 1302 Rocket 4.4 21:04:49 15° S 21:08:48 43° ESE 21:13:45 10° NE
SL-14 R/B 3.4 21:08:38 19° S 21:11:24 58° E 21:15:23 10° NNE
Cosmos 2219 Rocket 2.6 21:07:37 14° S 21:12:09 43° ESE 21:17:30 10° NE
Cosmos 1844 3.7 21:06:59 10° NNW 21:12:35 79° WSW 21:16:41 19° SSE
CENTAUR R/B 4.2 21:12:01 10° W 21:17:52 39° NNW 21:24:47 10° NE
Cosmos 1536 Rocket 3.7 21:15:05 19° S 21:18:07 59° E 21:22:30 10° NNE
Cosmos 1802 Rocket 4.1 21:12:02 10° N 21:18:18 78° W 21:23:39 15° S
CZ-4B DEB 4.1 21:19:02 27° SSE 21:20:36 86° ENE 21:23:48 10° NNW
DNEPR-1 R/B 3.5 21:19:43 10° NW 21:23:57 79° NE 21:26:37 23° SE
Meteor 1-24 Rocket 4.0 21:21:07 20° SSE 21:24:28 47° E 21:29:42 10° NNE
Cosmos 1025 Rocket 3.5 21:22:43 11° SSW 21:26:58 62° WNW 21:31:19 10° N
Cosmos 389 Rocket 3.8 21:26:00 10° NNE 21:28:57 26° ENE 21:30:14 21° ESE
Cosmos 2237 Rocket 3.7 21:27:22 16° ESE 21:28:58 18° E 21:32:43 10° ENE
Resurs 01 Rocket 4.4 21:31:46 10° WSW 21:33:00 11° W 21:34:15 10° WNW
Cosmos 1461 4.0 21:30:18 10° NW 21:34:02 32° WSW 21:36:05 20° SSW
Cosmos 2360 Rocket 2.9 21:29:00 10° SW 21:34:33 56° WNW 21:40:07 10° NNE
Cosmos 2228 3.7 21:30:33 10° N 21:34:46 42° ENE 21:36:56 24° SE
SL-16 R/B 4.2 21:29:52 10° WSW 21:34:49 30° NW 21:39:49 10° NNE
USA 267 4.0 21:29:48 10° E 21:36:06 53° NNE 21:42:25 10° NW
Cosmos 2322 Rocket 3.8 21:31:35 10° WSW 21:36:48 36° NW 21:42:03 10° NNE
Cosmos 1486 Rocket 4.3 21:36:58 10° NNW 21:42:08 57° ENE 21:45:12 24° SE
Cosmos 1455 3.8 21:41:06 10° NNE 21:44:17 24° ENE 21:45:44 19° ESE
SPOT 5 4.0 21:41:32 14° SSW 21:45:30 38° W 21:50:07 10° NNW
ATLAS CENTAUR R/B 1.7 21:41:53 10° NW 21:46:12 65° SW 21:48:22 29° SSE
Cosmos 968 Rocket 3.4 21:45:32 10° NNW 21:50:41 85° ENE 21:53:28 28° SSE
Terra 2.7 21:49:22 19° SSW 21:52:29 43° W 21:57:02 10° NNW
Cosmos 1300 3.2 21:48:58 10° NNW 21:52:41 53° W 21:54:30 27° SSW
COSMOS 2428 2.7 21:48:21 17° SSW 21:52:52 73° ESE 21:58:36 10° NNE
Cosmos 2322 3.8 21:49:03 10° SSW 21:54:42 79° WNW 22:00:24 10° NNE
FALCON 9 DEB 2.8 21:54:51 47° S 21:55:22 56° SE 21:58:26 10° ENE
Cosmos 1992 Rocket 4.4 21:54:03 28° SSE 21:56:27 47° ESE 22:01:27 10° NNE
Uosat 12 SS-18 rocket 4.2 21:54:41 24° SSW 21:57:15 61° ESE 22:02:10 10° NE
Cosmos 405 4.3 21:57:13 10° NNW 22:00:19 32° W 22:01:49 22° SW
Cosmos 2278 Rocket 2.6 21:54:57 10° NNW 22:00:34 58° ENE 22:04:01 23° SE
ATLAS CENTAUR R/B 3.9 21:59:32 23° SE 22:01:20 26° ESE 22:09:30 10° NE
Cosmos 2058 Rocket 4.1 22:01:21 10° N 22:05:29 36° ENE 22:07:18 25° ESE
Cosmos 1844 Rocket 4.3 22:04:34 10° NW 22:09:03 25° WSW 22:12:33 14° SSW
SL-8 R/B 4.5 22:05:37 10° W 22:09:55 34° SW 22:10:57 30° S
Cosmos 1340 4.4 22:06:52 11° SW 22:09:55 29° WNW 22:13:17 10° N
Cosmos 967 Rocket 4.5 22:05:37 10° NW 22:11:58 77° WSW 22:15:34 28° SSE
Cosmos 1346 Rocket 2.7 22:11:16 36° S 22:12:50 88° E 22:16:53 10° NNE
Cosmos 1726 Rocket 3.7 22:08:40 10° N 22:13:09 68° E 22:14:53 35° SSE
Cosmos 2233 Rocket 4.2 22:07:24 10° NNW 22:13:28 63° W 22:17:18 24° SSW
GEOS 3 Rocket 3.6 22:11:17 27° SE 22:14:19 86° SW 22:19:42 10° NW
FALCON 9 DEB 2.9 22:12:52 10° WSW 22:15:58 77° NNW 22:19:04 10° ENE
FALCON 9 DEB 2.7 22:18:01 24° WSW 22:19:45 88° NW 22:22:53 10° ENE
NOSS 0 Rocket 4.0 22:16:43 26° S 22:20:11 61° ESE 22:26:20 10° NE
SL-4 R/B 3.2 22:22:18 24° ESE 22:22:18 24° ESE 22:24:15 10° E
Meteor 2-5 Rocket 4.5 22:18:54 14° SW 22:23:30 48° WNW 22:28:55 10° N
FALCON 9 DEB 3.1 22:22:19 10° WSW 22:25:25 69° NNW 22:28:32 10° ENE
Lacrosse 5 rocket 2.6 22:24:01 10° W 22:27:25 36° NNW 22:30:47 10° NE
Cosmos 1606 Rocket 3.7 22:23:04 10° NNW 22:27:33 68° W 22:29:16 36° SSW
ATLAS 3B R/B 3.1 22:22:00 10° SW 22:28:30 63° NW 22:35:16 10° NE
Cosmos 1892 Rocket 3.5 22:29:33 40° S 22:31:05 74° E 22:35:32 10° NNE
SJ 16-02 3.5 22:28:09 10° N 22:31:16 19° NE 22:34:22 10° E
ALOS 2 2.8 22:32:40 36° SE 22:34:19 63° ENE 22:38:40 10° N
Cosmos 1980 3.7 22:36:00 31° S 22:38:43 68° ESE 22:44:23 10° NNE
Cosmos 1441 Rocket 3.7 22:38:21 40° SE 22:38:59 44° E 22:42:39 10° NNE
Meteor 2-1 Rocket 4.2 22:34:07 10° N 22:39:39 72° ENE 22:42:13 33° SSE
Cosmos 1943 Rocket 3.8 22:35:18 10° N 22:40:00 28° NE 22:44:42 10° ESE
Cosmos 1703 3.7 22:39:40 42° SE 22:40:26 49° E 22:44:17 10° NNE
Spot 4 3.9 22:39:08 36° S 22:41:02 67° WSW 22:45:48 10° NNW
Cosmos 1503 Rocket 4.0 22:36:09 10° NNW 22:41:33 81° WSW 22:43:52 35° SSE
USA 215 3.2 22:38:20 10° NE 22:44:55 89° NW 22:51:29 10° WSW
Cosmos 2333 Rocket 3.6 22:40:06 10° WSW 22:45:25 37° NW 22:50:44 10° NNE
SAR-Lupe-2 4.2 22:46:46 10° NNE 22:50:11 40° E 22:50:27 39° ESE
Cosmos 1328 4.3 22:52:30 38° ESE 22:53:09 42° E 22:56:51 10° NNE
Cosmos 2219 Rocket 3.6 22:51:01 10° WSW 22:56:12 36° NW 23:01:25 10° NNE
Cosmos 1464 Rocket 4.1 22:52:29 10° NNW 22:58:51 77° W 23:02:03 32° S
Cosmos 1867 4.2 22:55:01 10° NW 23:00:08 41° WSW 23:01:49 32° SSW
Cosmos 1626 Rocket 3.9 22:59:58 40° SE 23:01:11 53° E 23:05:32 10° NNE
Cosmos 1607 4.0 22:55:36 10° NW 23:02:00 72° WSW 23:05:04 32° SSE
Thor Agena Rocket 4.1 22:57:47 10° NNE 23:02:50 45° E 23:04:38 33° SSE
Cosmos 389 Rocket 4.3 23:00:54 10° NW 23:03:25 19° W 23:04:01 18° WSW
Cosmos 2346 Rocket 4.4 23:00:49 32° S 23:03:51 90° ESE 23:10:04 10° N
COBE Rocket 4.3 23:04:31 34° SSW 23:06:26 55° W 23:11:19 10° NNW
SL-16 R/B 2.9 23:06:18 31° SSE 23:08:06 39° ESE 23:13:21 10° NE
Cosmos 1602 Rocket 4.2 23:06:53 36° SE 23:08:06 45° E 23:12:23 10° NNE
Cosmos 2237 Rocket 2.3 23:09:09 26° SW 23:12:22 75° WNW 23:18:02 10° NNE
MTI 3.5 23:11:10 10° NNE 23:14:12 88° N 23:14:12 88° N
Meteor 1-4 Rocket 2.3 23:12:51 10° N 23:16:22 78° E 23:16:45 67° SE
USA 267 3.2 23:14:48 24° SE 23:19:00 69° SW 23:25:33 10° NW
Cosmos 1455 3.6 23:16:35 10° NNW 23:19:49 26° W 23:20:36 24° WSW
Cosmos 1816 Rocket 4.4 23:17:16 34° S 23:20:11 86° E 23:26:20 10° N
Cosmos 2369 Rocket 3.8 23:17:29 10° NNW 23:22:35 32° NE 23:27:37 10° ESE
Cosmos 1184 Rocket 4.1 23:22:45 28° W 23:23:22 30° WNW 23:26:18 10° N
Okean 1-7 Rocket 4.2 23:27:36 32° SW 23:29:16 49° WNW 23:33:36 10° N
Cosmos 1777 Rocket 4.0 23:26:07 10° NNW 23:31:24 72° WSW 23:33:25 38° S
Cosmos-2242 3.7 23:27:26 10° N 23:31:42 47° ENE 23:33:23 31° SE
Cosmos 2034 Rocket 4.2 23:26:49 10° NNW 23:32:54 60° W 23:35:44 32° SSW
Cosmos 1408 4.2 23:37:17 22° ESE 23:38:01 24° E 23:41:00 10° NE
Cosmos 2297 3.6 23:37:57 10° NNW 23:43:38 90° ENE 23:46:30 31° SSE
Cosmos 1812 Rocket 3.5 23:39:42 10° NNW 23:44:03 78° W 23:45:17 46° S
Cosmos 2278 Rocket 3.5 23:39:44 10° NW 23:44:14 25° WSW 23:45:51 22° SW
Meteor 1-11 4.1 23:44:20 36° S 23:46:46 88° E 23:52:24 10° NNE
Meteor 1-27 4.3 23:42:02 10° N 23:47:37 71° ENE 23:50:25 30° SSE
Cosmos 724 4.3 23:41:33 10° NW 23:47:44 76° WSW 23:50:57 29° SSE
